Flag for Romania Weather past 2 weeks in Târgu Mureş, Romania

Now
72 °F

Passing clouds.


Feels Like: 74 °F
Forecast: 60 / 83 °F
Wind: 7 mph from Northeast

Location: Tirgu Mures Airport

Current Time: Sep 4, 2015 at 8:07:24 PM

Latest Report: Sep 4, 2015 at 7:30 PM


Visibility: N/A

Pressure: 29.95 "Hg

Humidity: 73%

Dew point: 63 °F

Location of Târgu MureşLocation

Historic Weather in Târgu Mureş — Graph

°F

Târgu Mureş temperature yesterday

Maximum temperature yesterday: 86 °F (at 2:00 PM)
Minimum temperature yesterday: 61 °F (at 7:00 AM)
Average temperature yesterday: 75 °F

Past Weeks' High & Low Weather Summary

 TemperatureHumidityPressure
High95 °F (Sep 1, 4:30 PM)100% (Aug 21, 5:30 AM)30.27 "Hg (Aug 21, 5:30 AM)
Low50 °F (Aug 24, 5:00 AM)25% (Sep 1, 4:30 PM)29.83 "Hg (Sep 2, 6:30 PM)
Average72 °F65%30.09 "Hg
* Reported Aug 20 7:00 PM — Sep 4 7:00 PM, Târgu Mureş, Weather by CustomWeather, © 2015

Note: Actual official high and low records may vary slightly from our data, if they occured in-between our weather recording intervals... More about our weather records

Advertising

Târgu Mureş weather history for previous 24 hours

 ConditionsComfort  
Time TempWeatherWind HumidityBarometerVisibility
7:00 PM
Fri, Sep 4
75 °FPassing clouds.8 mph57%29.95 "HgN/A
6:30 PM75 °FPassing clouds.8 mph61%29.95 "HgN/A
6:00 PM77 °FPassing clouds.13 mph61%29.95 "HgN/A
5:30 PM77 °FPassing clouds.14 mph57%29.92 "HgN/A
5:00 PM84 °FPassing clouds.9 mph48%29.92 "HgN/A
4:30 PM84 °FPassing clouds.12 mph48%29.92 "HgN/A
4:00 PM86 °FPassing clouds.10 mph43%29.92 "HgN/A
3:30 PM84 °FPassing clouds.8 mph45%29.92 "HgN/A
3:00 PM84 °FPassing clouds.12 mph48%29.92 "HgN/A
2:30 PM84 °FPassing clouds.8 mph43%29.95 "HgN/A
2:00 PM82 °FPassing clouds.1 mph51%29.95 "HgN/A
1:30 PM79 °FScattered clouds.2 mph58%29.95 "HgN/A
1:00 PM79 °FPassing clouds.5 mph54%29.95 "HgN/A
12:30 PM75 °FPassing clouds.5 mph65%29.95 "HgN/A
12:00 PM72 °FSprinkles. Passing clouds.6 mph78%29.95 "HgN/A
11:30 AM72 °FScattered showers. Passing clouds.5 mph73%29.98 "HgN/A
11:00 AM72 °FPassing clouds.3 mph73%29.98 "HgN/A
10:30 AM68 °FPassing clouds.3 mph83%29.95 "HgN/A
10:00 AM68 °FPassing clouds.7 mph83%29.95 "HgN/A
9:30 AM68 °FPassing clouds.6 mph78%29.95 "HgN/A
9:00 AM64 °FPassing clouds.7 mph88%29.95 "Hg6 mi
8:30 AM63 °FPassing clouds.5 mph88%29.95 "Hg6 mi
8:00 AM63 °FPassing clouds.No wind88%29.95 "Hg6 mi
7:30 AM61 °FPassing clouds.No wind94%29.95 "Hg5 mi
7:00 AM59 °FPassing clouds.3 mph94%29.95 "Hg4 mi
6:30 AM59 °FPassing clouds.5 mph94%29.92 "Hg6 mi
6:00 AM59 °FClear.6 mph94%29.92 "Hg10 mi
5:30 AM59 °FClear.5 mph94%29.92 "Hg10 mi
5:00 AM57 °FClear.6 mph100%29.92 "Hg10 mi
4:00 AM59 °FClear.5 mph94%29.95 "Hg10 mi
3:00 AM59 °FClear.3 mph94%29.95 "Hg10 mi
2:00 AM59 °FClear.5 mph94%29.95 "Hg10 mi
1:00 AM63 °FClear.No wind88%29.95 "Hg10 mi
12:00 AM64 °FClear.2 mph83%29.95 "Hg10 mi
11:00 PM
Thu, Sep 3
64 °FClear.5 mph83%29.92 "Hg10 mi
10:00 PM68 °FClear.No wind78%29.92 "Hg10 mi
9:00 PM70 °FClear.No wind73%29.92 "Hg10 mi
8:30 PM72 °FSunny.No wind73%29.92 "Hg10 mi
8:00 PM75 °FPassing clouds.No wind65%29.92 "HgN/A
Weather by CustomWeather, © 2015

See weather overviewHow to use our weather pages